Location: Lesignano de� Bagni
(44.6500°N, 10.3000°E)
Time: 02:36:19
(UTC+00:00)

Daily predictions for brighter satellites

Satellite Brightness Start Highest point End
(mag) Time Altitude Azimuth Time Altitude Azimuth Time Altitude Azimuth
Cosmos 2344 4.2 02:43:59 47° ENE 02:43:59 47° ENE 02:49:23 10° NE
Cosmos 2369 Rocket 3.9 03:17:38 12° SSE 03:21:53 29° ESE 03:26:39 10° NE
CENTAUR R/B 2.8 03:29:56 60° NE 03:29:56 60° NE 03:35:40 10° NE
BREEZE-M DEB (TANK) 3.6 03:37:39 60° ESE 03:37:39 60° ESE 03:46:15 10° ESE
NOSS 3-2 (A) 4.0 03:44:15 45° N 03:44:15 45° N 03:48:59 10° NNE
MOS 1-B Rocket 4.5 03:40:46 10° SSE 03:46:54 56° ENE 03:50:36 22° N
Cosmos 1943 Rocket 2.8 03:48:57 45° NNE 03:48:57 45° NNE 03:52:51 10° NNE
CZ-2C R/B 3.9 03:44:31 10° SE 03:49:35 40° ENE 03:54:18 11° N
NOSS 3-2 (C) 3.2 03:50:59 83° NE 03:50:59 83° NE 03:57:09 10° NE
Envisat 4.0 03:54:19 10° NNE 03:59:12 44° E 04:04:03 10° S
Cosmos 968 Rocket 3.4 04:04:52 80° NNE 04:04:52 80° NNE 04:09:44 10° NNE
COSMO-SKYMED 1 3.6 04:00:49 10° SE 04:04:57 45° ENE 04:06:41 29° NNE
Cosmos 2098 Rocket 4.1 04:01:19 10° SSE 04:04:59 43° E 04:09:36 10° NNE
Cosmos 2297 4.1 04:09:09 47° NNW 04:09:09 47° NNW 04:13:37 10° NNE
Cosmos 1634 Rocket 4.0 04:04:41 10° N 04:11:01 82° E 04:17:14 10° S
Cosmos 2278 Rocket 4.4 04:19:52 11° N 04:19:52 11° N 04:20:05 10° N
USA 238 DEB 3.6 04:17:38 51° W 04:18:50 59° NW 04:25:38 10° NNE
USA 238 3.6 04:17:43 51° W 04:18:56 59° NW 04:25:44 10° NNE
Tsikada Rocket 3.9 04:13:33 10° SSW 04:19:41 62° WNW 04:25:55 10° N
USA 215 3.4 04:18:47 10° ESE 04:25:16 69° NNE 04:28:33 31° NW
Meteor 2-6 Rocket 4.4 04:22:23 10° N 04:27:47 65° ENE 04:33:07 10° SSE
Genesis I 4.2 04:32:34 36° SSW 04:32:34 36° SSW 04:35:25 10° S
Meteor 2-3 Rocket 3.9 04:32:53 43° W 04:33:46 46° WNW 04:39:17 10° N
ATLAS 5 CENTAUR R/B 4.3 04:32:49 10° SSE 04:35:19 17° ESE 04:37:57 10° ENE
CZ-2C R/B 4.5 04:38:05 10° NNE 04:42:38 38° E 04:47:21 10° SSE
SJ 16-02 3.8 04:39:09 10° SSE 04:42:42 24° E 04:46:14 10° NE
Cosmos 1812 2.6 04:43:26 60° W 04:43:31 60° W 04:47:16 10° S
Cosmos 1833 4.3 04:39:21 18° NNW 04:43:42 75° ENE 04:49:25 10° SSE
SL-8 R/B 3.6 04:45:55 42° WNW 04:47:32 80° NNE 04:52:19 10° ESE
Meteor 1-10 Rocket 4.4 04:42:02 10° N 04:47:36 70° ENE 04:53:07 10° SSE
CZ-4B R/B 4.0 04:46:03 10° N 04:50:31 74° WNW 04:54:58 10° SSW
Meteor 2-8 Rocket 4.5 04:44:57 10° N 04:51:08 84° E 04:57:15 10° S
Landsat 5 3.5 04:48:09 10° S 04:52:39 75° WSW 04:56:28 14° NNW
SKYMED 2 3.6 04:48:44 10° S 04:52:59 56° W 04:55:17 26° NNW
CZ-4B R/B 4.3 04:51:19 10° E 04:53:03 14° ENE 04:54:46 10° NNE
Cosmos 2263 4.1 04:48:24 10° SSW 04:54:04 73° WNW 04:59:51 10° NNE
Cosmos 2344 4.2 04:54:01 26° WNW 04:56:53 34° NNW 05:04:10 10° NNE
Cosmos 921 Rocket 3.8 05:03:15 29° W 05:03:37 30° W 05:07:30 10° SSW
Meteor 1-31 Rocket 2.9 05:00:58 10° N 05:04:44 49° WNW 05:08:31 10° SSW
Cosmos 2369 Rocket 2.4 05:00:23 10° SW 05:05:41 44° WNW 05:11:04 10° NNE
CZ-4C R/B 2.6 05:03:44 10° S 05:06:50 62° WSW 05:08:20 27° NNW
BREEZE-M DEB (TANK) 3.9 04:53:21 10° SW 05:07:18 66° SSE 05:11:02 10° ENE
IRAS Rocket 4.3 05:02:46 10° SSE 05:08:17 84° ENE 05:13:48 10° NNW
Cosmos 1503 Rocket 3.9 05:03:42 10° SSW 05:08:57 71° WNW 05:14:18 10° NNE
H-2A R/B 2.8 05:06:58 10° SSE 05:11:06 52° ENE 05:15:22 10° N
BREEZE-M DEB (TANK) 3.7 05:11:22 26° NW 05:12:59 47° N 05:20:49 10° E
H-2A R/B 3.5 05:10:13 10° N 05:13:24 27° WNW 05:16:36 10° SW
Okean 3 Rocket 3.8 05:09:12 10° SSW 05:13:35 47° WNW 05:17:59 10° N
Cosmos 1486 Rocket 4.5 05:11:38 10° SW 05:16:33 37° WNW 05:21:27 10° N
Cosmos 1862 3.8 05:13:05 10° SW 05:16:44 35° WNW 05:20:24 10° N
DMSP B5D2-2 4.0 05:11:53 10° SSE 05:17:07 89° W 05:22:21 10° NNW
DNEPR-1 R/B 4.2 05:14:05 20° NW 05:17:18 54° WSW 05:22:57 10° SSE
Cosmos 1151 Rocket 3.8 05:15:09 19° NW 05:17:30 31° W 05:21:23 10° SSW
Cosmos 1777 Rocket 4.4 05:14:08 10° S 05:19:17 67° ESE 05:24:30 10° NNE
CENTAUR R/B 3.6 05:17:08 19° WNW 05:20:20 28° NNW 05:26:34 10° NNE
COSMOS 2487 4.3 05:18:06 10° N 05:21:01 27° ENE 05:23:56 10° ESE
Cosmos 1656 Rocket 3.9 05:18:16 10° SW 05:23:24 43° WNW 05:28:35 10° NNE
Cosmos 1766 Rocket 4.2 05:19:30 10° SW 05:23:25 32° WNW 05:27:19 10° N
Cosmos 773 Rocket 3.9 05:21:26 10° NNW 05:26:41 80° WSW 05:31:51 10° SSE
CZ-2C R/B 3.5 05:25:09 10° SSW 05:29:55 30° W 05:34:40 10° NW
Cosmos 1943 Rocket 3.6 05:30:31 15° WNW 05:31:50 16° NW 05:35:19 10° N
Cosmos 1328 Rocket 4.3 05:29:31 10° NNW 05:33:22 30° W 05:37:09 10° SSW
Cosmos 2227 Rocket 4.2 05:32:42 10° N 05:37:00 22° NE 05:41:15 10° E
Envisat 3.9 05:33:52 10° N 05:37:58 25° WNW 05:42:03 10° WSW
CZ-4B R/B 2.5 05:34:53 10° N 05:38:25 60° WNW 05:41:56 10° SSW
SL-27 R/B 2.5 05:36:40 10° NNW 05:40:12 59° WSW 05:43:40 10° S
COSMO-SKYMED 1 4.0 05:38:21 10° SW 05:41:20 18° W 05:43:53 12° NW
Lacrosse 4 Rocket 4.2 05:42:03 10° NNE 05:43:05 11° NE 05:44:08 10° NE
Alouette 2 Rocket 3.2 05:39:52 10° NNW 05:43:41 86° ENE 05:47:16 10° SSE
ATLAS 3B R/B 2.9 05:41:10 10° SSW 05:47:39 75° ESE 05:54:27 10° NE
Cosmos 1602 4.0 05:44:16 10° S 05:48:03 73° E 05:51:52 10° NNE
NOAA 12 4.1 05:43:41 10° N 05:48:55 68° WNW 05:54:06 10° SSW
Nadezhda 4 Rocket 4.0 05:43:21 10° SSW 05:49:24 58° WNW 05:55:33 10° N
DELTA 2 R/B (1) 4.3 05:46:04 10° WSW 05:51:26 51° S 05:56:47 10° ESE
Meteor 1-27 Rocket 3.9 05:49:22 10° NNW 05:54:51 53° W 06:00:24 10° S
BREEZE M DEB (TANK) 2.6 05:53:54 10° WNW 05:56:56 38° N 05:58:53 10° E
Cosmos 1174 3.0 05:54:04 10° SW 05:57:01 65° NW 06:00:07 10° NNE
Cosmos 158 Rocket 4.1 05:52:20 10° NNW 05:57:30 86° ENE 06:02:44 10° SSE
Cosmos 1408 Rocket 4.3 05:54:03 10° SW 05:57:50 29° WNW 06:01:38 10° NNW
Cosmos 2228 Rocket 3.1 05:53:45 10° N 05:58:16 85° W 06:02:47 10° S
SMAP 3.0 05:55:16 10° N 05:59:55 72° WNW 06:04:33 10° SSW
PSLV R/B 4.0 05:57:54 10° SSE 06:01:57 82° ENE 06:06:04 10° NNW
Cosmos 1092 Rocket 4.0 05:58:30 10° SSW 06:04:43 75° W 06:11:04 10° N
Cosmos 1743 Rocket 3.9 06:01:41 10° SSW 06:05:53 45° WNW 06:10:06 10° N
Cosmos 1340 Rocket 3.2 06:04:02 10° SW 06:07:45 40° WNW 06:11:32 10° N
USA 215 4.0 06:02:28 10° SSE 06:08:31 39° SW 06:14:35 10° WNW
Cosmos 1428 Rocket 4.5 06:02:26 10° S 06:08:36 80° W 06:14:45 10° N
ADEOS 4.5 06:06:02 10° N 06:10:19 26° WNW 06:14:36 10° WSW
